sat.trackr.live / text

‹ back to catalog

STARLINK-31412

NORAD 59410 · 2024-064N

PAYLOAD ACTIVE UNKNOWN

§ Identity

Operator
Country
US
Launch date
2024-04-05
Launch site
AFETR
Launch vehicle
Mass (kg)
RCS (m²)

Purposes: comms

External: N2YO · Heavens-Above · Gunter

§ Orbital elements

Epoch: 2026-09-21T08:59:37.139424Z

Period
94.27 min
Inclination
43.0040°
Eccentricity
0.0002090
Mean motion
15.27569167 rev/d
Perigee alt
481.6 km
Apogee alt
484.5 km
Semi-major
6,861.2 km
B*
-6.7179e-6
RAAN
31.0114°
Arg perigee
271.2048°
Mean anomaly
88.8564°
Rev number
13,915

§ Raw data

STARLINK-314121 59410U 24064N   26264.37473541 -.00000447  00000+0 -67179-5 0  99902 59410  43.0040  31.0114 0002090 271.2048  88.8564 15.27569167139154

JSON: /api/v1/satellites/59410 · /tle

For live sub-satellite position, see the globe view (requires WebGL).

§ Visibility from observer

Set your observer location to see the next 7 days of passes ≥ 10°. The values pass through the URL so the page stays shareable.

No JS? Fill the form by hand. The geolocation button needs JavaScript.